Flag for U.S.A. Weather past 2 weeks in Rockford, Illinois, U.S.A.

Now
47 °F

Drizzle. Fog.


Feels Like: 42 °F
Forecast: 46 / 64 °F
Wind: 10 mph from East

Location: Greater Rockford Airport

Current Time: Sep 30, 2014 at 8:43:01 AM

Latest Report: Sep 30, 2014 at 7:54 AM


Visibility: 5 mi

Pressure: 30.10 "Hg

Humidity: 86%

Dew point: 43 °F

Location of RockfordLocation

Historic Weather in Rockford — Graph

°F

Rockford temperature yesterday

Maximum temperature yesterday: 83 °F (at 12:54 PM)
Minimum temperature yesterday: 53 °F (at 6:54 AM)
Average temperature yesterday: 66 °F

Past Weeks' High & Low Weather Summary

 TemperatureHumidityPressure
High83 °F (Sep 29, 12:54 PM)97% (Sep 19, 3:54 AM)30.36 "Hg (Sep 19, 3:54 AM)
Low39 °F (Sep 16, 6:54 AM)33% (Sep 25, 1:54 PM)29.73 "Hg (Sep 20, 10:54 PM)
Average61 °F70%30.14 "Hg
* Reported Sep 15 6:54 AM — Sep 30 6:54 AM, Rockford, Weather by CustomWeather, © 2014

Note: Actual official high and low records may vary slightly from our data, if they occured in-between our weather recording intervals... More about our weather records

Advertising

Rockford weather history for previous 24 hours

 ConditionsComfort  
Time TempWeatherWind HumidityBarometerVisibility
6:54 AM
Sep 30
48 °FDrizzle. Low clouds.9 mph89%30.08 "Hg7 mi
5:54 AM49 °FDrizzle. Low clouds.8 mph86%30.07 "Hg10 mi
4:54 AM50 °FDrizzle. Mostly cloudy.8 mph86%30.07 "Hg10 mi
3:54 AM51 °FDrizzle. Overcast.10 mph86%30.07 "Hg10 mi
2:54 AM52 °FMostly cloudy.14 mph80%30.07 "Hg10 mi
1:54 AM53 °FLow clouds.12 mph83%30.06 "Hg10 mi
12:54 AM53 °FOvercast.9 mph80%30.04 "Hg10 mi
11:54 PM
Sep 29
55 °FOvercast.12 mph80%30.03 "Hg10 mi
10:54 PM56 °FOvercast.10 mph81%30.03 "Hg8 mi
9:54 PM58 °FOvercast.16 mph81%30.03 "Hg7 mi
8:54 PM61 °FOvercast.12 mph78%30.03 "Hg8 mi
7:54 PM63 °FPassing clouds.14 mph75%30.00 "Hg10 mi
6:54 PM72 °FScattered clouds.12 mph64%29.95 "Hg10 mi
5:54 PM78 °FPassing clouds.5 mph50%29.93 "Hg10 mi
4:54 PM81 °FPassing clouds.7 mph42%29.93 "Hg10 mi
3:54 PM82 °FPassing clouds.9 mph40%29.95 "Hg10 mi
2:54 PM82 °FScattered clouds.10 mph41%29.96 "Hg10 mi
1:54 PM83 °FScattered clouds.8 mph41%29.98 "Hg10 mi
12:54 PM83 °FScattered clouds.14 mph40%30.00 "Hg10 mi
11:54 AM80 °FPassing clouds.8 mph47%30.02 "Hg10 mi
10:54 AM77 °FScattered clouds.5 mph56%30.04 "Hg10 mi
9:54 AM69 °FPassing clouds.3 mph70%30.05 "Hg10 mi
8:54 AM60 °FSunny.3 mph86%30.06 "Hg10 mi
Weather by CustomWeather, © 2014

See weather overviewHow to use our weather pages